Paynesville, MN

3:10 PM CDT on May 24, 2017 (GMT -0500)
Paynesville

Weather History for KPEX - October, 2011

Change the Weather History Date:

Monday, October 24, 2011

  Actual Average (KLJF) Record (KLJF)
Temperature  
Mean Temperature 44 °F -  
Max Temperature 58 °F 57 °F 79 °F (1989)
Min Temperature 30 °F 36 °F 20 °F (1949)
Degree Days  
Heating Degree Days 21    
Moisture  
Dew Point 37 °F    
Average Humidity 79    
Maximum Humidity 99    
Minimum Humidity 49    
Precipitation  
Precipitation 0.00 in - - ()
Sea Level Pressure  
Sea Level Pressure 29.98 in    
Wind  
Wind Speed 4 mph (WSW)    
Max Wind Speed 8 mph    
Max Gust Speed -    
Visibility 10 miles    
Events      
Averages and records for this station are not official NWS values.
T = Trace of Precipitation, MM = Missing Value Source: NWS Daily Summary

Daily Weather History Graph

Daily Weather History Graph

Search for Another Location

Airport or City:

Trip Planner

Search our weather history database for the weather conditions in past years. The results will help you decide how hot, cold, wet, or windy it might be!

Date:

Astronomy

Oct. 24, 2011 Rise Set
Actual Time 7:46 AM CDT 6:18 PM CDT
Civil Twilight 7:16 AM CDT 6:49 PM CDT
Nautical Twilight 6:42 AM CDT 7:23 PM CDT
Astronomical Twilight 6:07 AM CDT 7:57 PM CDT
Moon 5:00 AM CDT 4:48 PM CDT
Length of Visible Light 11h 32m
Length of Day
10h 31m
Waning Crescent, 7% of the Moon is Illuminated
Oct 24
Waning Crescent
Oct 26
New
Nov 2
First Quarter
Nov 10
Full
Nov 18
Last Quarter

Hourly Weather History & Observations

Time (CDT) Temp. Windchill Dew Point Humidity Pressure Visibility Wind Dir Wind Speed Gust Speed Precip Events Conditions
12:12 AM 35.1 °F 29.3 °F 32.4 °F 90% 29.94 in 10.0 mi West 6.9 mph - N/A   Clear
12:31 AM 34.7 °F 28.8 °F 32.9 °F 93% 29.94 in 10.0 mi West 6.9 mph - N/A   Clear
12:52 AM 34.0 °F 28.8 °F 32.0 °F 92% 29.94 in 10.0 mi West 5.8 mph - N/A   Clear
1:11 AM 34.9 °F 28.3 °F 32.5 °F 91% 29.94 in 10.0 mi West 8.1 mph - N/A   Clear
1:32 AM 34.2 °F 28.2 °F 32.0 °F 92% 29.95 in 10.0 mi West 6.9 mph - N/A   Clear
1:52 AM 32.9 °F 27.5 °F 31.8 °F 96% 29.95 in 10.0 mi West 5.8 mph - N/A   Clear
2:12 AM 33.8 °F 29.6 °F 32.0 °F 93% 29.95 in 10.0 mi West 4.6 mph - N/A   Clear
2:31 AM 34.0 °F 28.8 °F 32.0 °F 92% 29.95 in 10.0 mi WSW 5.8 mph - N/A   Clear
2:52 AM 32.0 °F 26.4 °F 30.2 °F 93% 29.96 in 10.0 mi WSW 5.8 mph - N/A   Clear
3:12 AM 32.7 °F 27.3 °F 31.8 °F 96% 29.96 in 10.0 mi WSW 5.8 mph - N/A   Clear
3:31 AM 32.4 °F 25.3 °F 31.6 °F 97% 29.97 in 10.0 mi West 8.1 mph - N/A   Clear
3:52 AM 33.3 °F 27.1 °F 32.0 °F 95% 29.96 in 10.0 mi West 6.9 mph - N/A   Clear
4:12 AM 32.4 °F 26.9 °F 31.6 °F 97% 29.97 in 10.0 mi West 5.8 mph - N/A   Clear
4:32 AM 32.0 °F 26.4 °F 31.1 °F 96% 29.97 in 10.0 mi WSW 5.8 mph - N/A   Clear
4:52 AM 32.0 °F 26.4 °F 31.5 °F 98% 29.97 in 10.0 mi West 5.8 mph - N/A   Clear
5:11 AM 31.5 °F 25.8 °F 30.7 °F 97% 29.97 in 10.0 mi West 5.8 mph - N/A   Clear
5:32 AM 30.9 °F 25.2 °F 30.2 °F 97% 29.98 in 10.0 mi West 5.8 mph - N/A   Clear
5:52 AM 30.7 °F 26.0 °F 30.0 °F 97% 29.98 in 10.0 mi WSW 4.6 mph - N/A   Clear
6:11 AM 30.4 °F 23.6 °F 29.7 °F 97% 29.99 in 10.0 mi WSW 6.9 mph - N/A   Clear
6:32 AM 30.9 °F 25.2 °F 30.2 °F 97% 29.99 in 7.0 mi WSW 5.8 mph - N/A   Scattered Clouds
6:52 AM 32.5 °F - 32.2 °F 99% 29.98 in 10.0 mi Calm Calm - N/A   Overcast
7:11 AM 33.6 °F - 32.7 °F 96% 29.98 in 10.0 mi Calm Calm - N/A   Drizzle
7:32 AM 32.5 °F - 31.8 °F 97% 29.99 in 10.0 mi Calm Calm - N/A   Scattered Clouds
7:52 AM 32.9 °F - 32.2 °F 97% 29.99 in 7.0 mi Calm Calm - N/A   Clear
8:12 AM 32.2 °F - 31.8 °F 99% 30.00 in 7.0 mi Calm Calm - N/A   Clear
8:32 AM 32.2 °F - 31.8 °F 99% 30.01 in 7.0 mi Calm Calm - N/A   Clear
8:51 AM 35.8 °F - 34.9 °F 97% 30.01 in 10.0 mi Calm Calm - N/A   Clear
9:12 AM 38.7 °F - 37.2 °F 95% 30.01 in 10.0 mi Calm Calm - N/A   Clear
9:32 AM 41.4 °F - 39.2 °F 92% 30.01 in 10.0 mi Calm Calm - N/A   Clear
9:52 AM 44.8 °F - 40.8 °F 86% 30.01 in 10.0 mi Calm Calm - N/A   Clear
10:12 AM 47.7 °F - 41.9 °F 80% 30.00 in 10.0 mi Calm Calm - N/A   Clear
10:32 AM 49.3 °F - 41.4 °F 74% 30.00 in 10.0 mi Calm Calm - N/A   Clear
10:52 AM 51.1 °F - 41.4 °F 69% 30.00 in 10.0 mi Calm Calm - N/A   Clear
11:12 AM 53.2 °F - 41.7 °F 65% 30.00 in 10.0 mi Calm Calm - N/A   Clear
11:31 AM 53.4 °F - 42.1 °F 65% 30.00 in 10.0 mi SE 4.6 mph - N/A   Clear
11:52 AM 53.8 °F - 42.6 °F 66% 30.01 in 10.0 mi SE 3.5 mph - N/A   Clear
12:11 PM 54.7 °F - 42.4 °F 63% 30.00 in 10.0 mi Calm Calm - N/A   Clear
12:32 PM 55.2 °F - 41.4 °F 60% 30.00 in 10.0 mi Calm Calm - N/A   Clear
12:52 PM 56.1 °F - 41.4 °F 58% 29.99 in 10.0 mi SSE 3.5 mph - N/A   Clear
1:32 PM 56.5 °F - 41.7 °F 58% 29.99 in 10.0 mi ESE 3.5 mph - N/A   Clear
1:52 PM 56.5 °F - 41.5 °F 57% 29.99 in 10.0 mi Calm Calm - N/A   Scattered Clouds
2:32 PM 56.5 °F - 41.2 °F 57% 29.98 in 10.0 mi Calm Calm - N/A   Overcast
2:52 PM 57.2 °F - 39.2 °F 51% 29.98 in 10.0 mi SW 3.5 mph - N/A   Overcast
3:12 PM 56.7 °F - 39.4 °F 52% 29.97 in 10.0 mi Calm Calm - N/A   Overcast
3:32 PM 57.0 °F - 39.6 °F 52% 29.96 in 10.0 mi South 6.9 mph - N/A   Mostly Cloudy
3:52 PM 58.1 °F - 39.0 °F 49% 29.98 in 10.0 mi Calm Calm - N/A   Mostly Cloudy
4:12 PM 57.7 °F - 39.7 °F 51% 29.97 in 10.0 mi Calm Calm - N/A   Mostly Cloudy
4:32 PM 56.7 °F - 39.2 °F 52% 29.97 in 10.0 mi Calm Calm - N/A   Scattered Clouds
4:52 PM 56.5 °F - 39.2 °F 52% 29.97 in 10.0 mi Calm Calm - N/A   Overcast
5:12 PM 55.9 °F - 39.6 °F 54% 29.97 in 10.0 mi Calm Calm - N/A   Overcast
5:32 PM 55.4 °F - 40.8 °F 58% 29.97 in 10.0 mi Calm Calm - N/A   Overcast
5:52 PM 54.7 °F - 41.2 °F 60% 29.97 in 10.0 mi Calm Calm - N/A   Overcast
6:11 PM 54.1 °F - 41.2 °F 62% 29.96 in 10.0 mi Calm Calm - N/A   Overcast
6:32 PM 52.7 °F - 41.4 °F 65% 29.97 in 10.0 mi Calm Calm - N/A   Overcast
7:12 PM 50.5 °F - 41.9 °F 72% 29.97 in 7.0 mi Calm Calm - N/A   Overcast
7:31 PM 49.6 °F - 41.5 °F 74% 29.98 in 10.0 mi Calm Calm - N/A   Scattered Clouds
7:52 PM 47.5 °F - 41.2 °F 79% 29.98 in 10.0 mi Calm Calm - N/A   Mostly Cloudy
8:12 PM 47.5 °F - 41.4 °F 79% 29.99 in 10.0 mi NNE 3.5 mph - N/A   Mostly Cloudy
8:32 PM 47.5 °F - 41.9 °F 81% 29.99 in 10.0 mi Calm Calm - N/A   Mostly Cloudy
8:52 PM 46.8 °F - 41.9 °F 83% 29.99 in 10.0 mi NNE 3.5 mph - N/A   Overcast
9:32 PM 48.4 °F - 42.8 °F 81% 29.99 in 10.0 mi NE 4.6 mph - N/A   Overcast
9:52 PM 48.2 °F - 42.8 °F 82% 30.00 in 10.0 mi Calm Calm - N/A   Overcast
10:31 PM 48.4 °F - 42.8 °F 81% 30.00 in 10.0 mi NE 3.5 mph - N/A   Overcast
11:12 PM 49.1 °F - 41.9 °F 76% 29.98 in 10.0 mi NE 5.8 mph - N/A   Overcast
11:31 PM 49.1 °F - 40.3 °F 72% 29.98 in 10.0 mi ENE 8.1 mph - N/A   Overcast
11:52 PM 48.4 °F - 39.7 °F 72% 29.97 in 10.0 mi NE 6.9 mph - N/A   Mostly Cloudy